Weather History for KJST - August, 2014

Change the Weather History Date:

Monday, August 11, 2014

  Actual Average Record
Temperature  
Mean Temperature 66 °F 69 °F  
Max Temperature 71 °F 77 °F 98 °F (1900)
Min Temperature 61 °F 60 °F 46 °F (1972)
Degree Days  
Heating Degree Days 0 1  
Month to date heating degree days 2 7  
Since 1 June heating degree days 91 94  
Since 1 July heating degree days 51 20  
Cooling Degree Days 1 4  
Month to date cooling degree days 21 51  
Year to date cooling degree days 239 294  
Since 1 June cooling degree days 213 276  
Growing Degree Days 16 (Base 50)    
Moisture  
Dew Point 58 °F    
Average Humidity 79    
Maximum Humidity 97    
Minimum Humidity 61    
Precipitation  
Precipitation 0.01 in 0.12 in 1.55 in (1929)
Month to date precipitation 0.09 1.36  
Year to date precipitation 21.98 21.85  
Sea Level Pressure  
Sea Level Pressure 30.05 in    
Wind  
Wind Speed 14 mph (SSE)    
Max Wind Speed 23 mph    
Max Gust Speed 33 mph    
Visibility 9 miles    
Events Rain    
T = Trace of Precipitation, MM = Missing Value Source: NWS Daily Summary

Daily Weather History Graph

Daily Weather History Graph

Search for Another Location

Airport or City:

Trip Planner

Search our weather history database for the weather conditions in past years. The results will help you decide how hot, cold, wet, or windy it might be!

Date:

Astronomy

Aug. 11, 2014 Rise Set
Actual Time 6:22 AM EDT 8:17 PM EDT
Civil Twilight 5:52 AM EDT 8:47 PM EDT
Nautical Twilight 5:16 AM EDT 9:23 PM EDT
Astronomical Twilight 4:38 AM EDT 10:01 PM EDT
Moon 8:44 PM EDT (8/11) 7:25 AM EDT (8/11)
Length of Visible Light 14h 54m
Length of Day
13h 55m
Full, 99% of the Moon is Illuminated
Aug 11
Full
Aug 17
Last Quarter
Aug 25
New
Sep 2
First Quarter
Sep 8
Full

Hourly Weather History & Observations

Time (EDT) Temp. Dew Point Humidity Pressure Visibility Wind Dir Wind Speed Gust Speed Precip Events Conditions
12:54 AM 64.0 °F 57.9 °F 80% 30.12 in 10.0 mi SSE 9.2 mph - N/A   Clear
1:54 AM 64.0 °F 59.0 °F 84% 30.11 in 10.0 mi South 9.2 mph - N/A   Clear
2:54 AM 63.0 °F 59.0 °F 87% 30.10 in 10.0 mi South 6.9 mph - N/A   Clear
3:54 AM 62.1 °F 57.9 °F 86% 30.09 in 8.0 mi SSE 5.8 mph - N/A   Clear
4:54 AM 62.1 °F 59.0 °F 90% 30.08 in 8.0 mi SSE 8.1 mph - N/A   Clear
5:54 AM 63.0 °F 59.0 °F 87% 30.08 in 9.0 mi SSE 10.4 mph - N/A   Clear
6:54 AM 63.0 °F 60.1 °F 90% 30.08 in 7.0 mi SSE 9.2 mph - N/A   Clear
7:54 AM 64.0 °F 60.1 °F 87% 30.09 in 7.0 mi SSE 12.7 mph - N/A   Overcast
8:54 AM 64.9 °F 60.1 °F 84% 30.09 in 7.0 mi SSE 9.2 mph - N/A   Overcast
9:54 AM 66.9 °F 60.1 °F 79% 30.08 in 9.0 mi SSE 13.8 mph 23.0 mph N/A   Overcast
10:54 AM 68.0 °F 59.0 °F 73% 30.08 in 10.0 mi SSE 16.1 mph 24.2 mph N/A   Overcast
11:54 AM 69.1 °F 57.0 °F 65% 30.08 in 10.0 mi SSE 20.7 mph 26.5 mph N/A   Overcast
12:54 PM 70.0 °F 55.9 °F 61% 30.07 in 10.0 mi SE 15.0 mph 26.5 mph N/A   Overcast
1:54 PM 69.1 °F 57.0 °F 65% 30.07 in 10.0 mi SSE 12.7 mph 21.9 mph N/A   Overcast
2:54 PM 66.9 °F 60.1 °F 79% 30.06 in 10.0 mi South 13.8 mph - 0.00 in Rain Light Rain
3:21 PM 64.0 °F 59.0 °F 84% 30.09 in 10.0 mi South 16.1 mph 27.6 mph 0.00 in Rain Light Rain
3:54 PM 64.9 °F 57.9 °F 78% 30.05 in 10.0 mi SSE 12.7 mph 18.4 mph 0.00 in Rain Light Rain
4:54 PM 64.9 °F 57.0 °F 75% 30.04 in 10.0 mi SSE 13.8 mph 25.3 mph 0.00 in   Scattered Clouds
5:44 PM 64.0 °F 57.0 °F 78% 30.06 in 10.0 mi SSE 10.4 mph 25.3 mph N/A   Overcast
5:54 PM 63.0 °F 57.0 °F 81% 30.03 in 10.0 mi SSE 21.9 mph 33.4 mph N/A   Overcast
6:11 PM 62.1 °F 57.0 °F 84% 30.04 in 10.0 mi SSE 19.6 mph 28.8 mph N/A   Overcast
6:54 PM 62.1 °F 57.9 °F 86% 30.01 in 10.0 mi SSE 15.0 mph 25.3 mph N/A   Overcast
7:11 PM 62.1 °F 57.0 °F 84% 30.02 in 10.0 mi SSE 13.8 mph 27.6 mph N/A   Overcast
7:54 PM 62.1 °F 57.0 °F 84% 30.00 in 10.0 mi SSE 19.6 mph 25.3 mph N/A   Overcast
8:11 PM 62.1 °F 57.0 °F 84% 30.02 in 10.0 mi SSE 13.8 mph 24.2 mph N/A   Overcast
8:54 PM 62.1 °F 55.0 °F 78% 29.99 in 10.0 mi SSE 16.1 mph 27.6 mph N/A   Overcast
9:54 PM 62.1 °F 55.0 °F 78% 29.99 in 10.0 mi SSE 17.3 mph 26.5 mph N/A   Overcast
10:54 PM 63.0 °F 57.9 °F 84% 29.97 in 10.0 mi SSE 18.4 mph 27.6 mph N/A   Overcast
11:26 PM 62.1 °F 59.0 °F 90% 30.00 in 8.0 mi South 17.3 mph 24.2 mph 0.00 in Rain Light Rain
11:54 PM 61.0 °F 59.0 °F 93% 29.96 in 10.0 mi SSE 19.6 mph 24.2 mph 0.00 in   Overcast